GSAT-29 (43698 NORAD) Tracking and Keplerian Element Data

This shows tracking and keplerian element data for the satellite.

Feedback or suggestion? Click here.




ElementValue
Catalog43698
NameGSAT-29
Epoch Orbit241
Epoch Day193.87405145
Epoch Year2019
RAAN257.4563
Inclination0.0454
Eccentricity0.0002897
Argument of Perigee190.4063
Mean Anonmoly212.2562
Mean Motion1.00273924
Decay Rate7.3E-07
L11 43698U 18089A 19193.87405145 .00000073 00000-0 00000-0 0 9993
L22 43698 0.0454 257.4563 0002897 190.4063 212.2562 1.00273924 2411

Live tracking and technical data element details for GSAT-29 (NORAD 43698). GSAT-29 can be tracked NOW for your location showing map with azimuth and elevation plus other details from your city location.

Track the satellite on the map from your city or location and see movement details for azimuth, elevation, latitude, longitude, range, height, and movement on the map or in text.







IsCatalogInMostPopularTable: catalog: 43698, numindb: 151
Update: records affected: 1



GetName: 43698 GSAT-29

Hit Count: updated at: Wed, 17 Jul 2019 09:21:46 GMT